Probability
0 0 0 0 0 0 0 1 1 1 3 4 4 3 2 1 0 0 0 0 0 0 0 0 0 0 0 0 0 0 0 0 0 0 0 0 0 0 0 0 0 0 0
0 0 0 0 0 0 0 0 0 1 2 4 3 2 1 0 0 0 0 0 0 0 0 0 0 0 0 0 0 0 0 0 0 0 0 0 0 0 0 0 0 0 0
0 0 0 0 0 0 0 0 0 0 1 3 3 1 1 0 0 0 0 0 0 0 0 0 0 0 0 0 0 0 0 0 0 0 0 0 0 0 0 0 0 0 0
0 0 0 0 0 0 0 0 0 0 0 1 1 1 1 0 0 0 0 0 0 0 0 0 0 0 0 0 0 0 0 0 0 0 0 0 0 0 0 0 0 0 0
0 0 0 0 0 0 0 0 0 0 0 0 0 0 0 0 0 0 0 0 0 0 0 0 0 0 0 0 0 0 0 0 0 0 0 0 0 0 0 0 0 0 0
0 0 0 0 0 0 0 0 0 0 0 0 0 0 0 0 0 0 0 0 0 0 0 0 0 0 0 0 0 0 0 0 0 0 0 0 0 0 0 0 0 0 0
0 0 0 0 0 0 0 0 0 0 0 0 0 0 0 0 0 0 0 0 0 0 0 0 0 0 0 0 0 0 0 0 0 0 0 0 0 0 0 0 0 0 0
0 0 0 0 0 0 0 0 0 0 0 0 0 0 0 0 0 0 0 0 0 0 0 0 0 0 0 0 0 0 0 0 0 0 0 0 0 0 0 0 0 0 0
0 0 0 0 0 0 0 0 0 0 0 0 0 0 0 0 0 0 0 0 0 0 0 0 0 0 0 0 0 0 0 0 0 0 0 0 0 0 0 0 0 0 0
0 0 0 0 0 0 0 0 0 0 0 0 0 0 0 0 0 0 0 0 0 0 0 0 0 0 0 0 0 0 0 0 0 0 0 0 0 0 0 0 0 0 0
0 0 0 0 0 0 0 0 0 0 0 0 0 0 0 0 0 0 0 0 0 0 0 0 0 0 0 0 0 0 0 0 0 0 0 0 0 0 0 0 0 0 0
0 0 0 0 0 0 0 0 0 0 0 0 0 0 0 0 0 0 0 0 0 0 0 0 0 0 0 0 0 0 0 0 0 0 0 0 0 0 0 0 0 0 0
0 0 0 0 0 0 0 0 0 0 0 0 0 0 0 0 0 0 0 0 0 0 0 0 0 0 0 0 0 0 0 0 0 0 0 0 0 0 0 0 0 0 0
0 0 0 0 0 0 0 0 0 0 0 0 0 0 0 0 0 0 0 0 0 0 0 0 0 0 0 0 0 0 0 0 0 0 0 0 0 0 0 0 0 0 0
0 0 0 0 0 0 0 0 0 0 0 0 0 0 0 0 0 0 0 0 0 0 0 0 0 0 0 0 0 0 0 0 0 0 0 0 0 0 0 0 0 0 0
0 0 0 0 0 0 0 0 0 0 0 0 0 0 0 0 0 0 0 0 0 0 0 0 0 0 0 0 0 0 0 0 0 0 0 0 0 0 0 0 0 0 0
0 0 0 0 0 0 0 0 0 0 0 0 0 0 0 0 0 0 0 0 0 0 0 0 0 0 0 0 0 0 0 0 0 0 0 0 0 0 0 0 0 0 0
0 0 0 0 0 0 0 0 0 0 0 0 0 0 0 0 0 0 0 0 0 0 0 0 0 0 0 0 0 0 0 0 0 0 0 0 0 0 0 0 0 0 0
0 0 0 0 0 0 0 0 0 0 0 0 0 0 0 0 0 0 0 0 0 0 0 0 0 0 0 0 0 0 0 0 0 0 0 0 0 0 0 0 0 0 0
0 0 0 0 0 0 0 0 0 0 0 0 0 0 0 0 0 0 0 0 0 0 0 0 0 0 0 0 0 0 0 0 0 0 0 0 0 0 0 0 0 0 0
0 0 0 0 0 0 0 0 0 0 0 0 0 0 0 0 0 0 0 0 0 0 0 0 0 0 0 0 0 0 0 0 0 0 0 0 0 0 0 0 0 0 0
0 0 0 0 0 0 0 0 0 0 0 0 0 0 0 0 0 0 0 0 0 0 0 0 0 0 0 0 0 0 0 0 0 0 0 0 0 0 0 0 0 0 0
0 0 0 0 0 0 0 0 0 0 0 0 0 0 0 0 0 0 0 0 0 0 0 0 0 0 0 0 0 0 0 0 0 0 0 0 0 0 0 0 0 0 0
0 0 0 0 0 0 0 0 0 0 0 0 0 0 0 0 0 0 0 0 0 0 0 0 0 0 0 0 0 0 0 0 0 0 0 0 0 0 0 0 0 0 0
0 0 0 0 0 0 0 0 0 0 0 0 0 0 0 0 0 0 0 0 0 0 0 0 0 0 0 0 0 0 0 0 0 0 0 0 0 0 0 0 0 0 0
0 0 0 0 0 0 0 0 0 0 0 0 0 0 0 0 0 0 0 0 0 0 0 0 0 0 0 0 0 0 0 0 0 0 0 0 0 0 0 0 0 0 0
Wind_Speed
3 1 1 0 1 2 2 2 2 2 3 3 3 3 3 2 2 2 3 3 2 2 2 2 2 2 2 2 2 1 1 1 1 1 1 2 1 0 1 0 0 0 0
2 1 0 1 1 2 1 2 2 1 2 2 2 3 3 2 2 2 2 2 2 2 2 3 2 2 2 2 2 1 1 0 1 1 0 0 1 1 1 0 0 1 0
5 3 2 1 1 1 1 1 1 1 1 2 3 3 3 2 2 2 2 1 2 2 2 2 2 2 2 2 1 1 1 1 1 0 1 2 2 1 1 1 0 1 1
4 3 3 2 2 1 1 1 1 1 1 2 3 5 4 3 3 2 2 2 2 2 2 2 3 2 2 1 1 0 0 1 1 1 1 1 1 2 1 1 1 1 1
4 4 4 3 2 1 1 1 1 1 1 2 3 3 3 2 2 2 3 2 2 2 2 2 2 2 1 1 1 1 0 1 1 1 1 1 1 0 1 2 2 2 2
3 3 2 2 2 1 1 1 2 1 1 2 2 3 3 3 4 3 3 2 2 1 1 2 2 2 1 1 1 2 1 1 1 1 1 1 1 1 1 2 2 3 2
3 3 3 2 2 1 1 1 2 1 1 1 2 2 3 3 4 3 3 3 2 1 1 1 2 2 1 1 1 2 2 2 2 2 2 2 2 1 1 1 2 3 2
3 3 3 3 3 2 2 2 2 1 1 1 1 2 2 2 2 2 2 3 2 2 2 2 1 1 1 1 2 2 2 2 2 3 3 2 2 2 1 2 2 2 2
2 2 2 3 2 2 2 3 2 2 2 2 1 1 2 2 2 1 1 1 1 1 1 1 1 1 1 1 1 1 2 2 2 3 2 2 2 2 2 1 2 3 3
2 2 2 3 2 2 2 2 2 3 2 2 2 2 1 2 2 2 1 1 0 0 1 1 1 1 1 1 1 1 1 2 2 2 2 2 2 2 2 2 2 2 3
3 3 2 2 2 2 1 1 2 1 1 2 2 2 1 2 2 2 2 1 1 1 1 1 2 2 2 2 2 2 2 2 2 2 2 3 2 2 1 2 2 2 2
2 2 1 1 1 1 1 1 2 2 2 2 1 2 2 2 2 2 1 1 1 1 1 1 1 1 2 2 2 3 2 3 3 3 3 3 2 2 2 2 2 3 2
1 1 0 1 1 1 1 1 1 1 1 2 2 2 2 2 2 1 1 1 1 1 1 1 1 2 2 2 3 3 3 3 3 3 4 4 3 3 3 3 3 3 3
2 1 1 2 2 2 2 2 2 1 1 2 2 2 2 2 2 1 1 1 1 1 1 1 1 2 2 2 3 3 3 3 3 4 4 4 4 4 4 3 4 3 3
2 2 2 2 2 2 2 2 2 2 2 2 2 2 1 1 1 1 1 1 1 1 2 2 2 2 2 2 3 3 3 3 3 3 3 4 5 6 5 4 3 3 3
3 2 2 2 2 3 3 2 2 2 2 2 2 2 1 1 1 1 1 1 1 1 2 2 2 2 2 4 5 4 3 3 3 3 3 4 4 5 5 6 5 5 4
3 3 3 3 3 3 3 3 3 2 2 2 2 2 1 1 1 1 1 1 2 1 2 2 2 3 4 5 5 5 3 3 3 4 3 3 3 4 3 4 5 5 6
3 3 3 3 3 2 2 2 2 1 2 2 2 1 1 2 1 1 1 2 2 2 2 3 3 3 4 5 5 5 3 3 3 3 4 4 4 4 4 3 4 4 5
3 3 3 3 2 2 2 2 2 1 2 2 2 2 2 2 2 2 2 2 2 2 2 3 3 3 4 5 5 5 3 3 3 4 4 4 5 6 6 4 4 5 4
2 2 2 1 1 2 1 1 2 2 3 3 3 2 2 3 3 3 2 2 2 3 3 3 3 3 4 5 6 5 2 3 3 3 4 5 6 7 6 5 5 5 5
1 1 1 1 1 1 1 1 2 3 4 2 2 2 2 2 2 2 2 2 2 2 2 3 3 3 4 5 6 5 3 3 3 3 3 4 7 8 8 6 4 5 4
1 1 1 2 2 1 1 2 4 4 2 2 2 2 2 2 1 1 2 2 2 2 2 3 3 3 3 4 5 6 6 5 4 4 4 4 7 8 8 6 5 5 3
1 1 1 2 2 1 1 3 4 2 1 2 2 2 2 1 2 2 2 2 2 2 3 3 3 3 3 4 6 6 7 7 4 4 7 8 8 7 5 5 5 3 2
1 1 1 2 3 3 2 3 3 2 1 2 2 2 2 2 1 2 2 2 2 3 3 3 3 3 3 3 3 3 3 4 4 4 4 6 6 5 4 3 3 2 2
1 1 2 4 4 4 3 3 2 1 2 3 3 2 2 2 2 2 3 4 4 5 5 4 4 4 5 6 7 5 3 3 3 3 2 2 2 2 2 2 2 2 1
2 2 3 4 5 4 4 3 3 2 3 3 3 2 2 2 2 2 3 5 6 7 8 7 6 6 7 9 8 8 7 6 5 2 2 3 3 3 3 3 2 2 2
Wind_Direction
226 223 202 154 100 86 98 115 131 145 144 153 153 155 157 150 135 120 106 108 108 110 108 108 107 101 105 105 99 90 75 36 43 54 12 345 345 297 226 196 144 98 281
226 236 167 102 107 117 122 122 117 129 157 161 164 158 150 147 139 124 115 114 118 121 116 114 116 112 108 98 86 82 91 2 1 103 159 255 322 333 308 278 236 271 334
203 214 194 162 127 115 135 137 148 147 134 138 138 127 120 123 132 137 136 117 124 124 122 123 120 117 120 135 135 135 121 194 276 256 162 174 214 269 299 286 265 296 317
197 191 186 177 170 185 146 120 129 116 119 139 147 156 165 170 175 170 157 132 128 129 129 126 129 134 136 140 164 145 277 179 227 283 304 260 184 186 244 299 308 307 298
196 195 191 182 173 167 143 130 117 98 106 126 147 162 165 165 154 147 143 145 143 142 138 137 143 144 148 158 172 195 257 221 228 251 291 295 289 212 196 242 271 298 281
195 191 181 159 148 142 121 119 122 107 104 124 141 149 158 160 154 159 166 168 166 164 154 145 157 159 163 176 200 209 218 232 245 260 268 253 233 227 213 226 256 266 274
176 176 171 173 169 163 148 139 130 135 136 139 152 148 151 155 166 173 176 174 178 184 188 177 182 180 193 203 208 218 232 232 235 238 252 257 256 240 238 234 253 268 272
179 186 189 184 183 180 174 168 165 171 164 159 174 146 144 157 164 171 175 181 193 199 189 186 188 186 196 210 213 228 242 248 242 248 249 257 253 246 240 221 225 264 263
188 192 196 186 187 180 191 193 190 182 172 172 161 150 152 157 157 148 146 176 191 192 166 179 195 199 200 215 218 234 246 249 242 247 251 259 253 247 245 241 224 217 245
188 199 209 204 189 185 186 189 193 196 183 176 177 168 173 171 158 144 154 161 155 84 178 195 203 207 217 228 224 248 257 253 261 262 251 257 263 256 253 251 250 237 235
209 211 224 201 173 165 170 191 197 196 183 185 177 163 173 165 153 156 174 180 171 151 191 225 221 216 228 239 237 250 250 247 258 264 252 257 268 261 261 263 259 252 240
217 217 210 173 157 176 196 205 201 201 205 197 175 177 180 160 152 168 181 173 179 199 214 216 236 247 244 242 239 245 251 247 249 254 256 259 260 256 255 256 264 263 256
232 240 197 201 210 213 227 237 228 216 208 187 177 182 189 180 176 181 186 177 184 219 240 232 244 261 265 255 247 241 247 250 250 249 249 252 245 256 257 253 253 258 265
215 208 224 247 265 258 242 244 249 233 204 186 185 194 204 207 204 202 202 194 192 213 240 249 256 262 266 265 263 253 247 248 254 256 252 249 242 245 248 250 248 250 256
268 239 234 246 260 275 275 262 253 238 202 186 196 209 212 212 209 221 224 218 215 223 231 237 252 261 258 257 261 262 257 255 259 262 257 253 254 256 255 253 244 239 245
266 267 257 256 254 255 262 268 260 244 193 189 205 202 190 200 213 230 239 248 252 250 239 236 243 256 265 275 277 278 260 259 256 264 271 266 257 260 261 260 258 250 243
264 269 264 255 257 256 252 254 254 248 207 203 207 194 189 210 229 234 238 248 260 263 263 263 261 263 271 282 284 287 277 261 255 258 266 275 275 263 257 260 262 260 258
262 272 271 269 273 273 258 254 251 231 212 209 212 208 207 231 241 236 244 259 265 259 267 272 269 269 277 287 290 295 286 270 266 262 259 261 267 265 261 255 260 258 251
256 261 264 263 275 281 268 243 234 228 225 226 227 227 220 227 237 245 251 262 271 270 272 270 265 269 281 283 286 292 280 278 279 275 269 264 263 267 271 261 252 259 259
266 280 299 313 315 306 299 239 242 235 237 240 240 236 224 221 231 246 262 282 274 272 278 281 275 268 275 278 284 289 270 273 278 280 278 273 273 276 275 261 241 243 251
273 294 311 313 302 316 316 256 259 255 257 256 251 245 235 235 238 254 272 274 279 285 282 284 287 277 274 273 276 276 271 265 273 274 275 274 278 280 278 276 255 253 258
286 290 283 296 308 308 259 263 265 276 285 262 247 246 250 251 244 242 267 267 259 269 276 282 288 284 283 281 278 280 284 284 271 269 271 271 275 279 279 278 270 271 272
255 276 268 288 298 282 246 255 276 296 287 268 253 254 263 258 247 234 244 254 248 252 266 269 276 288 291 286 289 287 287 286 283 272 273 281 282 286 281 276 278 273 235
258 283 281 281 286 288 273 264 279 280 254 251 251 245 241 254 255 249 237 239 241 250 260 263 269 279 282 277 278 277 279 282 287 287 285 289 288 291 293 282 273 255 234
281 261 253 264 275 283 279 277 266 236 242 249 247 245 240 236 246 251 246 249 238 238 249 249 251 259 268 271 283 286 275 271 272 295 295 295 291 280 278 277 269 250 239
275 270 268 272 277 280 279 273 256 230 225 244 243 238 240 240 242 257 288 285 282 278 275 274 273 276 280 287 286 290 291 290 290 296 265 265 263 262 258 259 262 256 250